Date String (YYYY-MM-DD hh:mm:ss) UTC,Instrument flags,absolute air pressure of the measurement (hPa),sample flow rate (lpm),inlet stack bypass flow (lpm),air temperature of the measurement (°C),ambient temperature measured by the external sensor (°C),aerosol sample conditioner tube jacket temperature (°C),OPC LED temperature (°C),internal box temperature (°C),relative humidity of the measurement (%),span deviation,mass concentration of particles derived from Lorenz-Mie calculation of OPC scattering (μg/m³),mass concentration of particles derived from Lorenz-Mie calculation of OPC scattering (μg/m³),mass concentration of particles derived from Lorenz-Mie calculation of OPC scattering (μg/m³)
DateTimeUTC,F1_M11,P_M11,Q1_M11,Q2_M11,T1_M11,T2_M11,T3_M11,T4_M11,T5_M11,U1_M11,ZSPAN_M11,X0_M11,X2_M11,X1_M11
2024-05-18 23:00:00,SystemResetWarning,0826.8,5.00,000.00,024.1,022.8,000.0,032.1,025.5,028.8,0000.0,0016.65,0005.72,0003.78
2024-05-18 23:01:00,SystemResetWarning,0826.8,5.00,000.00,023.7,021.0,000.0,032.2,024.5,029.9,0000.0,0017.04,0005.63,0003.76
2024-05-18 23:02:00,SystemResetWarning,0826.8,5.01,000.00,023.5,020.9,000.0,032.2,024.4,030.0,0000.0,0017.86,0005.56,0003.73
2024-05-18 23:03:00,SystemResetWarning,0826.8,5.01,000.00,023.4,021.3,000.0,032.0,024.6,030.1,0000.0,0018.81,0005.49,0003.72
2024-05-18 23:04:00,SystemResetWarning,0826.9,4.99,000.00,023.4,021.7,000.0,031.9,024.9,030.5,0000.0,0019.20,0005.43,0003.73
2024-05-18 23:05:00,SystemResetWarning,0826.9,4.99,000.00,023.5,022.1,000.0,031.9,025.1,030.4,0000.0,0019.59,0005.40,0003.73
2024-05-18 23:06:00,SystemResetWarning,0826.9,5.00,000.00,023.6,022.4,000.0,031.9,025.3,030.1,0000.0,0020.78,0005.36,0003.74
2024-05-18 23:07:00,SystemResetWarning,0826.9,5.00,000.00,023.7,022.8,000.0,031.9,025.5,029.8,0000.0,0020.73,0005.35,0003.74
2024-05-18 23:08:00,SystemResetWarning,0827.0,5.01,000.00,023.8,023.0,000.0,031.9,025.6,029.9,0000.0,0019.70,0005.35,0003.75
2024-05-18 23:09:00,SystemResetWarning,0826.9,5.01,000.00,023.8,023.3,000.0,031.9,025.7,030.0,0000.0,0020.78,0005.29,0003.73
2024-05-18 23:10:00,SystemResetWarning,0827.0,4.98,000.00,023.9,023.5,000.0,031.9,025.9,029.6,0000.0,0020.78,0005.28,0003.73
2024-05-18 23:11:00,SystemResetWarning,0826.9,5.00,000.00,024.0,023.6,000.0,031.9,026.0,029.3,0000.0,0020.55,0005.21,0003.72
2024-05-18 23:12:00,SystemResetWarning,0826.9,5.01,000.00,024.1,023.8,000.0,032.0,026.1,029.2,0000.0,0020.28,0005.22,0003.74
2024-05-18 23:13:00,SystemResetWarning,0827.0,5.00,000.00,024.1,023.3,000.0,032.1,025.8,028.9,0000.0,0020.09,0005.26,0003.74
2024-05-18 23:14:00,SystemResetWarning,0826.9,5.00,000.00,023.9,021.9,000.0,032.2,025.1,029.0,0000.0,0020.86,0005.32,0003.74
2024-05-18 23:15:00,SystemResetWarning,0827.0,5.01,000.00,023.7,021.9,000.0,032.2,025.0,029.1,0000.0,0021.38,0005.32,0003.72
2024-05-18 23:16:00,SystemResetWarning,0827.0,5.00,000.00,023.7,022.2,000.0,032.1,025.1,029.1,0000.0,0021.99,0005.37,0003.71
2024-05-18 23:17:00,SystemResetWarning,0827.0,5.00,000.00,023.8,022.5,000.0,032.0,025.4,029.0,0000.0,0021.08,0005.39,0003.71
2024-05-18 23:18:00,SystemResetWarning,0827.1,5.00,000.00,023.9,022.8,000.0,032.0,025.6,029.3,0000.0,0021.62,0005.39,0003.71
2024-05-18 23:19:00,SystemResetWarning,0827.1,5.00,000.00,023.9,023.1,000.0,032.0,025.7,029.1,0000.0,0021.52,0005.37,0003.70
2024-05-18 23:20:00,SystemResetWarning,0827.1,4.99,000.00,024.0,023.3,000.0,032.0,025.9,029.0,0000.0,0020.70,0005.41,0003.71
2024-05-18 23:21:00,SystemResetWarning,0827.1,5.00,000.00,024.1,023.5,000.0,032.1,026.0,029.0,0000.0,0020.53,0005.34,0003.70
2024-05-18 23:22:00,SystemResetWarning,0827.1,5.00,000.00,024.2,023.7,000.0,032.1,026.1,028.8,0000.0,0020.51,0005.37,0003.71
2024-05-18 23:23:00,SystemResetWarning,0827.2,4.99,000.00,024.2,023.5,000.0,032.2,025.9,028.8,0000.0,0020.49,0005.36,0003.70
2024-05-18 23:24:00,SystemResetWarning,0827.1,4.99,000.00,024.0,021.7,000.0,032.3,024.9,028.7,0000.0,0019.87,0005.32,0003.69
2024-05-18 23:25:00,SystemResetWarning,0827.1,5.01,000.00,023.6,020.8,000.0,032.3,024.4,029.4,0000.0,0019.07,0005.30,0003.70
2024-05-18 23:26:00,SystemResetWarning,0827.2,5.01,000.00,023.5,021.1,000.0,032.2,024.5,030.4,0000.0,0017.82,0005.30,0003.71
2024-05-18 23:27:00,SystemResetWarning,0827.2,5.00,000.00,023.5,021.5,000.0,032.1,024.8,031.0,0000.0,0017.70,0005.33,0003.72
2024-05-18 23:28:00,SystemResetWarning,0827.2,4.99,000.00,023.6,021.9,000.0,032.0,025.0,031.4,0000.0,0017.81,0005.36,0003.73
2024-05-18 23:29:00,SystemResetWarning,0827.3,4.99,000.00,023.6,022.3,000.0,031.9,025.2,031.3,0000.0,0017.49,0005.34,0003.74
2024-05-18 23:30:00,SystemResetWarning,0827.3,5.00,000.00,023.7,022.6,000.0,031.9,025.4,031.2,0000.0,0017.48,0005.36,0003.75
2024-05-18 23:31:00,SystemResetWarning,0827.4,5.01,000.00,023.8,022.9,000.0,031.9,025.5,031.3,0000.0,0017.49,0005.39,0003.77
2024-05-18 23:32:00,SystemResetWarning,0827.4,5.01,000.00,023.9,023.2,000.0,031.9,025.7,030.8,0000.0,0017.45,0005.39,0003.77
2024-05-18 23:33:00,SystemResetWarning,0827.8,4.98,000.00,023.9,023.4,000.0,031.9,025.8,031.0,0000.0,0018.22,0005.40,0003.78
2024-05-18 23:34:00,SystemResetWarning,0827.5,5.00,000.00,024.0,023.6,000.0,032.0,026.0,031.1,0000.0,0018.09,0005.40,0003.80
2024-05-18 23:35:00,SystemResetWarning,0827.7,5.01,000.00,024.1,023.7,000.0,032.0,026.1,031.0,0000.0,0019.07,0005.47,0003.82
2024-05-18 23:36:00,SystemResetWarning,0827.7,5.01,000.00,024.2,023.9,000.0,032.1,026.2,031.0,0000.0,0020.09,0005.51,0003.82
2024-05-18 23:37:00,SystemResetWarning,0827.8,4.99,000.00,024.3,023.9,000.0,032.1,026.2,031.1,0000.0,0019.46,0005.52,0003.83
2024-05-18 23:38:00,SystemResetWarning,0827.8,4.98,000.00,024.2,022.6,000.0,032.2,025.5,031.9,0000.0,0019.58,0005.51,0003.84
2024-05-18 23:39:00,SystemResetWarning,0827.7,5.03,000.00,023.9,021.7,000.0,032.3,025.0,030.3,0000.0,0019.52,0005.52,0003.84
2024-05-18 23:40:00,SystemResetWarning,0827.7,5.00,000.00,023.8,022.0,000.0,032.2,025.1,028.3,0000.0,0019.84,0005.53,0003.84
2024-05-18 23:41:00,SystemResetWarning,0827.6,4.99,000.00,023.8,022.3,000.0,032.2,025.3,025.9,0000.0,0019.64,0005.55,0003.82
2024-05-18 23:42:00,SystemResetWarning,0827.7,5.01,000.00,023.8,022.6,000.0,032.1,025.5,024.9,0000.0,0020.41,0005.57,0003.77
2024-05-18 23:43:00,SystemResetWarning,0827.6,5.00,000.00,023.9,022.9,000.0,032.1,025.6,024.8,0000.0,0020.54,0005.63,0003.74
2024-05-18 23:44:00,SystemResetWarning,0827.7,5.00,000.00,024.0,023.2,000.0,032.1,025.7,024.5,0000.0,0020.77,0005.67,0003.70
2024-05-18 23:45:00,SystemResetWarning,0827.8,4.99,000.00,024.0,023.4,000.0,032.2,025.9,024.7,0000.0,0021.51,0005.65,0003.66
2024-05-18 23:46:00,SystemResetWarning,0827.8,4.98,000.00,024.1,023.6,000.0,032.2,026.0,025.4,0000.0,0021.23,0005.59,0003.59
2024-05-18 23:47:00,SystemResetWarning,0827.9,5.00,000.00,024.1,023.7,000.0,032.2,026.1,026.3,0000.0,0019.82,0005.51,0003.53
2024-05-18 23:48:00,SystemResetWarning,0828.0,5.01,000.00,024.2,023.9,000.0,032.3,026.2,026.8,0000.0,0018.80,0005.42,0003.47
2024-05-18 23:49:00,SystemResetWarning,0827.9,5.00,000.00,024.3,024.0,000.0,032.3,026.2,027.5,0000.0,0019.00,0005.37,0003.42
2024-05-18 23:50:00,SystemResetWarning,0827.8,4.98,000.00,024.2,022.9,000.0,032.4,025.6,027.6,0000.0,0018.07,0005.27,0003.36
2024-05-18 23:51:00,SystemResetWarning,0827.9,5.01,000.00,023.8,020.7,000.0,032.4,024.5,027.4,0000.0,0017.03,0005.21,0003.31
2024-05-18 23:52:00,SystemResetWarning,0827.9,5.01,000.00,023.5,020.4,000.0,032.4,024.2,029.3,0000.0,0016.32,0005.10,0003.28
2024-05-18 23:53:00,SystemResetWarning,0827.9,5.00,000.00,023.4,020.9,000.0,032.2,024.5,029.3,0000.0,0015.42,0005.05,0003.27
2024-05-18 23:54:00,SystemResetWarning,0828.0,5.00,000.00,023.4,021.3,000.0,032.1,024.8,029.6,0000.0,0014.86,0004.95,0003.25
2024-05-18 23:55:00,SystemResetWarning,0828.0,5.01,000.00,023.5,021.8,000.0,032.0,025.0,028.6,0000.0,0014.25,0004.91,0003.24
2024-05-18 23:56:00,SystemResetWarning,0828.0,5.00,000.00,023.5,022.1,000.0,032.0,025.2,028.0,0000.0,0012.77,0004.95,0003.25
2024-05-18 23:57:00,SystemResetWarning,0827.9,5.00,000.00,023.6,022.5,000.0,031.9,025.4,026.9,0000.0,0012.44,0004.94,0003.24
2024-05-18 23:58:00,SystemResetWarning,0828.0,4.99,000.00,023.7,022.8,000.0,031.9,025.5,026.9,0000.0,0011.97,0004.93,0003.24
2024-05-18 23:59:00,SystemResetWarning,0828.1,5.00,000.00,023.8,023.0,000.0,031.9,025.6,027.3,0000.0,0011.72,0004.88,0003.24
